Location: Escondida
(34.1015°N, 106.8964°W)
Time: 14:37:23
(UTC+00:00)

BlueWalker 3 - Pass Details

Date: 21 February 2026
Orbit: 451 x 457 km, 53.2° (Epoch: 14 March)

Event Time Altitude Azimuth Distance (km) Brightness Sun altitude
Rises 13:10:38 0° 217° (SW) 2,459 5.1 -8.0°
Reaches altitude 10° 13:12:46 10° 215° (SW) 1,589 4.2 -7.6°
Maximum altitude 13:16:19 66° 133° (SE) 499 2.2 -6.8°
Drops below altitude 10° 13:19:52 10° 50° (NE) 1,595 5.1 -6.1°
Sets 13:22:01 0° 48° (NE) 2,470 6.1 -5.7°
